Showing default

HULIANWANG DIGUI-13, 62973

Orbit data source: Space-Track

HULIANWANG DIGUI-13, 62973 is a payload satellite owned by Zhongguo Xingwang (CN) in LEO that was launched on Tue, 11 Feb 2025 UTC via a CHANG ZHENG 8A launch vehicle from the Wenchang Satellite Launch Center (WSC). Payload-class satellites include a variety of spacecraft equipped with specific instruments for various scientific and technological missions. These include communications satellites like Starlink; space stations such as the ISS; scientific satellites like the Hubble; Earth observation satellites from companies like Planet Labs, Umbra, and HawkEye 360; GPS; miniature CubeSats for education and research; and military/defense satellites.

Loading next visibility...
Identifier
62973, 2025-030C
Orbit
LEO
Last TLE update
4 hours ago
Origin
Manufacturer
CAST
Mission
Operational Civil Communications
Bus & Motor
HWHD, Unknown motor
Mass
~800 kg wet, ~800 kg dry
Launch date (UTC)
2025-02-11 (5 months ago)
Launch vehicle
CHANG ZHENG 8A
Launch site
Wenchang Satellite Launch Center (WSC)
Object type
Payload
Rocket body
Debris
Shape & HBR
Box + 2 Pan, 10 m
Radar Cross Section
5.935 m², Large (>1 m²)

Expand to show TLE details & history

TLE from 4 hours ago
0 HULIANWANG DIGUI-13
1 62973U 25030C   25190.18389822 -.00000108  00000-0  35059-4 0  9991
2 62973  50.0042  26.0543 0000526 146.2341 213.8565 13.29331355 20236
Epoch: 2025-07-09T04:24Z
TLE epoch observation values (Epoch: 2025-07-09T04:24:48.806Z)
Latitude
0.00002°
Longitude
32.48278°
Altitude
1,150.122 km
Speed
7.279 km/s
True Right ascension
01h 44m 13s
True Declination
0° 00' 00"
Sunlit
Object was in daylight at epoch
Visualization orbit readout
Latitude
17.16345°
Longitude
46.86606°
Altitude
1,149.417 km
Speed
7.281 km/s
Apparent Right ascension
04h 50m 56s
Apparent Declination
-11° 32' 22"
Sunlit
Object is in daylight
Visualization observer readout
Local Sidereal Time
20:17:42
Azimuth
72.917° E
Elevation
-36.454°
Doppler factor
1
Orbital elements
Apogee altitude
1,150.387 km
Perigee altitude
1,149.595 km
Semi-major axis
7,528.128 km
Eccentricity
0.00005
Inclination
50.0042°
RAAN
26.0543°
Arg. of periapsis
146.2341°
True anomaly
Unknown
Mean anomaly
213.8565°
Eccentric anomaly
Unknown
Mean motion
3.32286 °/min
Orbital period
108.34 mins
BSTAR
0.000035059
Loading maneuver chart data...
Loading SW <> Apogee altitude chart data...
Loading historical data...
Loading historical data...
Loading historical data...
Loading historical data...
Loading historical data...
Loading historical data...
Loading historical data...

HULIANWANG DIGUI-13 Visibility forecast

Observer location: undefined°, undefined°

Span
Click to sort rows by Start time (UTC) header in descending order
Start Az.
Max El. time (UTC)
Max El. Az.
Max El.
End time (UTC)
End Az.
12 mins2025-07-09 15:23:06.283Z206.717° SW2025-07-09 15:29:06.283Z131.666° SE38.31°2025-07-09 15:35:06.283Z64.669° ENE
12 mins2025-07-09 17:17:06.283Z261.133° W2025-07-09 17:23:06.283Z350.111° N39.896°2025-07-09 17:29:06.283Z52.47° ENE
12 mins2025-07-09 19:12:06.283Z297.496° NW2025-07-09 19:17:06.283Z350.888° N31.393°2025-07-09 19:24:06.283Z64.863° ENE
12 mins2025-07-09 21:07:06.283Z310.874° NW2025-07-09 21:12:06.283Z10.976° NNE38.475°2025-07-09 21:19:06.283Z97.18° ESE
12 mins2025-07-09 23:01:06.283Z295.195° NW2025-07-09 23:06:06.283Z231.297° WSW40.79°2025-07-09 23:13:06.283Z145.286° SSE
4 mins2025-07-10 00:57:06.283Z253.231° W2025-07-10 00:59:06.283Z235.933° WSW13.052°2025-07-10 01:01:06.283Z218.935° SW
|